Eugene, OR

4:13 AM PST on December 07, 2019 (GMT -0800)
Mahlon Sweet

Weather History for KEUG - October, 2019

Change the Weather History Date:

Saturday, October 19, 2019

  Actual Average Record
Temperature  
Mean Temperature 54 °F 52 °F  
Max Temperature 59 °F 63 °F 86 °F (1940)
Min Temperature 49 °F 41 °F 25 °F (1949)
Degree Days  
Heating Degree Days 11 13  
Month to date heating degree days 270 201  
Since 1 July heating degree days 388 389  
Cooling Degree Days 0 0  
Month to date cooling degree days 0 0  
Year to date cooling degree days 353 238  
Growing Degree Days 2 (Base 50)    
Moisture  
Dew Point 46 °F    
Average Humidity 76    
Maximum Humidity 89    
Minimum Humidity 62    
Precipitation  
Precipitation 0.33 in 0.12 in 1.75 in (1947)
Month to date precipitation 1.10 1.49  
Year to date precipitation 29.59 28.79  
Sea Level Pressure  
Sea Level Pressure 29.98 in    
Wind  
Wind Speed 13 mph (SW)    
Max Wind Speed 23 mph    
Max Gust Speed 28 mph    
Visibility 9 miles    
Events Rain    
T = Trace of Precipitation, MM = Missing Value Source: NWS Daily Summary

Daily Weather History Graph

Daily Weather History Graph

Search for Another Location

Airport or City:

Astronomy

Oct. 19, 2019 Rise Set
Actual Time 7:32 AM PDT 6:22 PM PDT
Civil Twilight 7:03 AM PDT 6:51 PM PDT
Nautical Twilight 6:29 AM PDT 7:25 PM PDT
Astronomical Twilight 5:56 AM PDT 7:58 PM PDT
Moon 10:27 PM PDT (10/19) 1:19 PM PDT (10/19)
Length of Visible Light 11h 48m
Length of Day
10h 49m
Waning Gibbous, 68% of the Moon is Illuminated
Oct 19
Waning Gibbous
Oct 21
Last Quarter
Oct 27
New
Nov 4
First Quarter
Nov 12
Full

Hourly Weather History & Observations

Time (PDT) Temp. Dew Point Humidity Pressure Visibility Wind Dir Wind Speed Gust Speed Precip Events Conditions
1:54 AM 51.1 °F 46.9 °F 86% 29.77 in 5.0 mi South 13.8 mph - 0.05 in Rain Light Rain
2:12 AM 51.1 °F 48.0 °F 89% 29.74 in 10.0 mi South 17.3 mph - 0.01 in Rain Light Rain
2:54 AM 52.0 °F 48.0 °F 86% 29.74 in 10.0 mi SSW 18.4 mph - 0.01 in Rain Light Rain
3:54 AM 54.0 °F 50.0 °F 86% 29.77 in 10.0 mi SW 16.1 mph - 0.04 in Rain Light Rain
4:54 AM 54.0 °F 46.9 °F 77% 29.82 in 10.0 mi West 12.7 mph - 0.02 in   Scattered Clouds
5:54 AM 53.1 °F 48.0 °F 83% 29.84 in 8.0 mi West 12.7 mph 17.3 mph 0.00 in   Overcast
6:05 AM 52.0 °F 46.0 °F 80% 29.86 in 2.0 mi WNW 13.8 mph - 0.04 in Rain Heavy Rain
6:08 AM 51.1 °F 46.0 °F 83% 29.86 in 4.0 mi WNW 15.0 mph - 0.06 in Rain Rain
6:54 AM 52.0 °F 46.0 °F 80% 29.88 in 10.0 mi SW 4.6 mph - 0.08 in   Overcast
7:54 AM 48.9 °F 45.0 °F 86% 29.91 in 10.0 mi SSE 8.1 mph - 0.00 in   Mostly Cloudy
8:54 AM 52.0 °F 46.9 °F 83% 29.94 in 10.0 mi South 9.2 mph - N/A   Mostly Cloudy
9:54 AM 54.0 °F 46.9 °F 77% 29.96 in 10.0 mi SW 11.5 mph - 0.00 in Rain Light Rain
10:54 AM 55.9 °F 48.0 °F 75% 29.99 in 10.0 mi WSW 10.4 mph - 0.07 in   Mostly Cloudy
12:54 PM 57.9 °F 46.9 °F 67% 30.03 in 10.0 mi WSW 20.7 mph - N/A   Overcast
1:54 PM 57.9 °F 46.0 °F 65% 30.05 in 10.0 mi WSW 16.1 mph - N/A   Mostly Cloudy
2:54 PM 57.9 °F 45.0 °F 62% 30.06 in 10.0 mi WSW 13.8 mph 18.4 mph N/A   Mostly Cloudy
3:54 PM 59.0 °F 46.9 °F 64% 30.08 in 10.0 mi West 11.5 mph 18.4 mph 0.06 in   Mostly Cloudy
4:54 PM 55.0 °F 46.0 °F 72% 30.10 in 10.0 mi SW 15.0 mph - N/A   Mostly Cloudy
5:54 PM 53.1 °F 46.9 °F 80% 30.11 in 10.0 mi SW 9.2 mph - N/A   Mostly Cloudy
6:54 PM 50.0 °F 45.0 °F 83% 30.13 in 10.0 mi South 6.9 mph - N/A   Mostly Cloudy
7:54 PM 48.0 °F 44.1 °F 86% 30.14 in 10.0 mi SSW 9.2 mph - N/A   Partly Cloudy
8:54 PM 46.9 °F 43.0 °F 86% 30.14 in 10.0 mi SE 8.1 mph - N/A   Scattered Clouds
9:54 PM 48.9 °F 45.0 °F 86% 30.16 in 10.0 mi SSE 9.2 mph - N/A   Partly Cloudy
10:54 PM 46.9 °F 44.1 °F 90% 30.16 in 10.0 mi SSE 4.6 mph - N/A   Partly Cloudy
11:54 PM 46.9 °F 44.1 °F 90% 30.17 in 10.0 mi Calm Calm - N/A   Clear